User: anonymous   Login
Location: Allos
(44.2333°N, 6.6333°E)
Time: 04:02:22
(UTC+00:00)
Language:

FENGYUN 1C DEB - Orbit

View from above orbital plane
View from above orbital plane
View from above satellite
View from above satellite

Ground track
Ground track

The orbit data is extracted from the following two-line orbital elements,

1 30619U 99025ANA 21165.33981228  .00000112  00000-0  43063-4 0  9999
2 30619  98.4816 205.7624 0229241 299.2440  58.6000 14.35654627753505
Epoch (UTC): 14 June 2021 08:09:19
Eccentricity: 0.0229241
inclination: 98.4816°
perigee height: 609 km
apogee height: 937 km
right ascension of ascending node: 205.7624°
argument of perigee: 299.2440°
revolutions per day: 14.35654627
mean anomaly at epoch: 58.6000°
orbit number at epoch: 75350

The dashed part of the orbit path shows where the satellite is in the earth's shadow,  

DLR